When you browse on this site, cookies collect data to enhance your experience and personalize the content and advertising you see.
Visit our Privacy Policy to learn more. By continuing to use the site, you agree to this use of cookies and data.

Hourly Weather La Massana

Today, 4 July, Saturday

Time Temperature Precipitation Wind Pressure Humidity
00:00 +6°C° 0 mm 2 mps 614 mmHg 86%
01:00 +5°C° 0 mm 2 mps 613 mmHg 79%
02:00 +6°C° 0 mm 1 mps 613 mmHg 73%
03:00 +6°C° 0 mm 1 mps 612 mmHg 67%
04:00 +7°C° 0 mm 1 mps 613 mmHg 62%
05:00 +9°C° 0 mm 1 mps 614 mmHg 57%
06:00 +10°C° 0 mm 1 mps 615 mmHg 58%
07:00 +12°C° 0 mm 1 mps 616 mmHg 52%
08:00 +15°C° 0 mm 1 mps 617 mmHg 46%
09:00 +18°C° 0 mm 1 mps 618 mmHg 40%
10:00 +19°C° 0 mm 1 mps 618 mmHg 40%
11:00 +20°C° 0 mm 1 mps 619 mmHg 40%
12:00 +20°C° 0 mm 2 mps 619 mmHg 39%
13:00 +20°C° 0 mm 2 mps 619 mmHg 41%
14:00 +20°C° 0 mm 2 mps 618 mmHg 43%
15:00 +20°C° 0 mm 2 mps 618 mmHg 44%
16:00 +19°C° 0 mm 2 mps 618 mmHg 51%
17:00 +17°C° 0 mm 2 mps 617 mmHg 58%
18:00 +16°C° 0 mm 2 mps 617 mmHg 65%
19:00 +14°C° 0 mm 2 mps 616 mmHg 71%
20:00 +12°C° 0 mm 2 mps 615 mmHg 76%
21:00 +9°C° 0 mm 2 mps 615 mmHg 82%
22:00 +9°C° 0 mm 2 mps 615 mmHg 71%
23:00 +9°C° 0 mm 2 mps 615 mmHg 60%

Tomorrow, 5 July, Sunday

Time Temperature Precipitation Wind Pressure Humidity
00:00 +9°C° 0 mm 2 mps 615 mmHg 49%
01:00 +9°C° 0 mm 2 mps 615 mmHg 51%
02:00 +9°C° 0 mm 2 mps 615 mmHg 52%
03:00 +9°C° 0 mm 2 mps 614 mmHg 54%
04:00 +10°C° 0 mm 2 mps 615 mmHg 58%
05:00 +12°C° 0 mm 1 mps 615 mmHg 61%
06:00 +13°C° 0 mm 1 mps 616 mmHg 65%
07:00 +15°C° 0 mm 1 mps 617 mmHg 60%
08:00 +19°C° 0 mm 1 mps 618 mmHg 54%
09:00 +21°C° 0 mm 1 mps 619 mmHg 49%
10:00 +22°C° 0 mm 1 mps 619 mmHg 46%
11:00 +23°C° 0 mm 2 mps 619 mmHg 43%
12:00 +24°C° 0 mm 2 mps 619 mmHg 40%
13:00 +24°C° 0 mm 2 mps 619 mmHg 41%
14:00 +24°C° 0 mm 2 mps 619 mmHg 43%
15:00 +23°C° 0 mm 2 mps 618 mmHg 44%
16:00 +21°C° 0 mm 2 mps 618 mmHg 52%
17:00 +20°C° 0 mm 2 mps 617 mmHg 59%
18:00 +20°C° 0 mm 1 mps 616 mmHg 66%
19:00 +18°C° 0 mm 1 mps 615 mmHg 73%
20:00 +15°C° 0 mm 1 mps 615 mmHg 80%
21:00 +13°C° 0 mm 1 mps 614 mmHg 87%
22:00 +13°C° 0 mm 1 mps 614 mmHg 87%
23:00 +12°C° 0 mm 2 mps 614 mmHg 87%

Day after tomorrow, 6 July, Monday

Time Temperature Precipitation Wind Pressure Humidity
00:00 +12°C° 0 mm 2 mps 614 mmHg 86%
01:00 +12°C° 0 mm 2 mps 613 mmHg 86%
02:00 +12°C° 0 mm 2 mps 613 mmHg 86%
03:00 +12°C° 0 mm 2 mps 613 mmHg 87%
04:00 +12°C° 0 mm 2 mps 613 mmHg 85%
05:00 +13°C° 0 mm 2 mps 614 mmHg 83%
06:00 +13°C° 0 mm 2 mps 614 mmHg 82%
07:00 +15°C° 0 mm 2 mps 614 mmHg 78%
08:00 +16°C° 0 mm 2 mps 615 mmHg 74%
09:00 +17°C° 0 mm 2 mps 616 mmHg 71%
10:00 +18°C° 0 mm 2 mps 616 mmHg 70%
11:00 +18°C° 0 mm 2 mps 616 mmHg 69%
12:00 +18°C° 0 mm 2 mps 616 mmHg 69%
13:00 +18°C° 0 mm 2 mps 615 mmHg 70%
14:00 +18°C° 0 mm 2 mps 615 mmHg 71%
15:00 +18°C° 0 mm 2 mps 615 mmHg 71%
16:00 +16°C° 0.1 mm 2 mps 614 mmHg 75%
17:00 +14°C° 0.1 mm 3 mps 614 mmHg 78%
18:00 +13°C° 0.1 mm 3 mps 613 mmHg 81%
19:00 +12°C° 0 mm 3 mps 613 mmHg 84%
20:00 +11°C° 0 mm 3 mps 613 mmHg 86%
21:00 +10°C° 0 mm 3 mps 613 mmHg 88%
22:00 +9°C° 0 mm 3 mps 613 mmHg 89%
23:00 +9°C° 0 mm 2 mps 612 mmHg 90%

7 July, Tuesday

Time Temperature Precipitation Wind Pressure Humidity
00:00 +8°C° 0 mm 2 mps 612 mmHg 91%
01:00 +8°C° 0 mm 2 mps 612 mmHg 89%
02:00 +7°C° 0 mm 2 mps 611 mmHg 88%
03:00 +7°C° 0 mm 2 mps 611 mmHg 86%
04:00 +7°C° 0 mm 2 mps 611 mmHg 77%
05:00 +7°C° 0 mm 2 mps 611 mmHg 69%
06:00 +8°C° 0 mm 2 mps 612 mmHg 60%
07:00 +12°C° 0 mm 2 mps 613 mmHg 50%
08:00 +14°C° 0 mm 2 mps 614 mmHg 40%
09:00 +17°C° 0 mm 2 mps 615 mmHg 29%
10:00 +18°C° 0 mm 2 mps 615 mmHg 29%
11:00 +19°C° 0 mm 2 mps 616 mmHg 28%
12:00 +21°C° 0 mm 2 mps 616 mmHg 28%
13:00 +21°C° 0 mm 2 mps 616 mmHg 30%
14:00 +21°C° 0 mm 2 mps 616 mmHg 33%
15:00 +21°C° 0 mm 2 mps 615 mmHg 36%
16:00 +19°C° 0 mm 2 mps 615 mmHg 44%
17:00 +19°C° 0 mm 1 mps 614 mmHg 52%
18:00 +18°C° 0 mm 1 mps 614 mmHg 60%
19:00 +15°C° 0 mm 1 mps 613 mmHg 68%
20:00 +13°C° 0 mm 1 mps 613 mmHg 76%
21:00 +11°C° 0 mm 1 mps 612 mmHg 84%
22:00 +11°C° 0 mm 1 mps 612 mmHg 86%
23:00 +11°C° 0 mm 1 mps 612 mmHg 87%

8 July, Wednesday

Time Temperature Precipitation Wind Pressure Humidity
00:00 +11°C° 0 mm 1 mps 612 mmHg 89%
01:00 +11°C° 0 mm 1 mps 612 mmHg 90%
02:00 +11°C° 0 mm 1 mps 612 mmHg 90%
03:00 +11°C° 0 mm 1 mps 612 mmHg 91%
04:00 +11°C° 0 mm 1 mps 612 mmHg 88%
05:00 +12°C° 0 mm 1 mps 612 mmHg 84%
06:00 +13°C° 0 mm 1 mps 613 mmHg 81%
07:00 +15°C° 0 mm 1 mps 614 mmHg 71%
08:00 +19°C° 0 mm 1 mps 615 mmHg 60%
09:00 +21°C° 0 mm 1 mps 616 mmHg 50%
10:00 +21°C° 0 mm 2 mps 616 mmHg 47%
11:00 +23°C° 0 mm 2 mps 616 mmHg 44%
12:00 +24°C° 0 mm 2 mps 616 mmHg 41%
13:00 +24°C° 0 mm 2 mps 616 mmHg 42%
14:00 +24°C° 0 mm 2 mps 616 mmHg 42%
15:00 +24°C° 0 mm 2 mps 616 mmHg 43%
16:00 +21°C° 0.7 mm 2 mps 615 mmHg 53%
17:00 +20°C° 0.7 mm 2 mps 614 mmHg 63%
18:00 +18°C° 0.7 mm 2 mps 614 mmHg 73%
19:00 +17°C° 0.4 mm 2 mps 613 mmHg 77%
20:00 +15°C° 0.4 mm 2 mps 613 mmHg 81%
21:00 +14°C° 0.4 mm 1 mps 612 mmHg 84%
22:00 +13°C° 0 mm 1 mps 612 mmHg 82%
23:00 +13°C° 0 mm 1 mps 612 mmHg 80%

9 July, Thursday

Time Temperature Precipitation Wind Pressure Humidity
00:00 +13°C° 0 mm 1 mps 612 mmHg 78%
01:00 +12°C° 0 mm 1 mps 612 mmHg 79%
02:00 +12°C° 0 mm 1 mps 611 mmHg 80%
03:00 +11°C° 0 mm 1 mps 611 mmHg 81%
04:00 +12°C° 0.1 mm 1 mps 612 mmHg 80%
05:00 +12°C° 0.1 mm 0 mps 612 mmHg 80%
06:00 +13°C° 0.1 mm 0 mps 613 mmHg 79%
07:00 +15°C° 0.2 mm 1 mps 613 mmHg 74%
08:00 +18°C° 0.2 mm 1 mps 614 mmHg 69%
09:00 +19°C° 0.2 mm 1 mps 615 mmHg 64%
10:00 +19°C° 0.4 mm 2 mps 615 mmHg 62%
11:00 +20°C° 0.4 mm 2 mps 615 mmHg 60%
12:00 +20°C° 0.4 mm 2 mps 615 mmHg 58%
13:00 +20°C° 0.9 mm 2 mps 615 mmHg 61%
14:00 +20°C° 0.9 mm 1 mps 615 mmHg 64%
15:00 +20°C° 0.9 mm 1 mps 614 mmHg 67%
16:00 +19°C° 1 mm 1 mps 614 mmHg 73%
17:00 +18°C° 1 mm 1 mps 613 mmHg 78%
18:00 +16°C° 1 mm 1 mps 613 mmHg 84%
19:00 +15°C° 0.7 mm 1 mps 613 mmHg 86%
20:00 +13°C° 0.7 mm 1 mps 613 mmHg 89%
21:00 +12°C° 0.7 mm 1 mps 613 mmHg 91%
22:00 +12°C° 0 mm 1 mps 612 mmHg 91%
23:00 +12°C° 0 mm 1 mps 612 mmHg 91%
Show more